Time,TemperatureF,DewpointF,PressureIn,WindDirection,WindDirectionDegrees,WindSpeedMPH,WindSpeedGustMPH,Humidity,HourlyPrecipIn,Conditions,Clouds,dailyrainin,SoftwareType,DateUTC
2013-01-25 00:05:00,4.3,-10.0,30.28,WNW,298,0.0,-999.0,52,-99.99,,,0.00,weatherlink.com 1.10,2013-01-25 05:05:00,
2013-01-25 00:20:00,4.0,-9.0,30.29,WNW,285,4.0,-999.0,54,-99.99,,,0.00,weatherlink.com 1.10,2013-01-25 05:20:00,
2013-01-25 00:35:00,4.0,-10.0,30.28,WNW,291,1.0,-999.0,53,-99.99,,,0.00,weatherlink.com 1.10,2013-01-25 05:35:00,
2013-01-25 00:50:00,3.8,-10.0,30.29,NW,306,3.0,-999.0,54,-99.99,,,0.00,weatherlink.com 1.10,2013-01-25 05:50:00,
2013-01-25 01:05:00,3.5,-10.0,30.29,NW,323,0.0,-999.0,54,-99.99,,,0.00,weatherlink.com 1.10,2013-01-25 06:05:00,
2013-01-25 01:20:00,3.2,-9.0,30.30,WNW,288,0.0,-999.0,56,-99.99,,,0.00,weatherlink.com 1.10,2013-01-25 06:20:00,
2013-01-25 01:36:00,3.5,-9.0,30.30,NW,309,3.0,-999.0,56,-99.99,,,0.00,weatherlink.com 1.10,2013-01-25 06:36:00,
2013-01-25 01:51:00,3.5,-9.0,30.29,WNW,284,5.0,-999.0,56,-99.99,,,0.00,weatherlink.com 1.10,2013-01-25 06:51:00,
2013-01-25 02:06:00,3.4,-10.0,30.29,WNW,284,6.0,-999.0,55,-99.99,,,0.00,weatherlink.com 1.10,2013-01-25 07:06:00,
2013-01-25 02:21:00,3.5,-9.0,30.30,NW,323,3.0,-999.0,55,-99.99,,,0.00,weatherlink.com 1.10,2013-01-25 07:21:00,
2013-01-25 02:36:00,3.4,-9.0,30.30,NW,320,1.0,-999.0,56,-99.99,,,0.00,weatherlink.com 1.10,2013-01-25 07:36:00,
2013-01-25 02:51:00,3.7,-9.0,30.30,NNW,341,3.0,-999.0,56,-99.99,,,0.00,weatherlink.com 1.10,2013-01-25 07:51:00,
2013-01-25 03:06:00,3.8,-9.0,30.30,West,276,4.0,-999.0,55,-99.99,,,0.00,weatherlink.com 1.10,2013-01-25 08:06:00,
2013-01-25 03:21:00,3.8,-9.0,30.30,West,279,4.0,-999.0,55,-99.99,,,0.00,weatherlink.com 1.10,2013-01-25 08:21:00,
2013-01-25 03:36:00,3.6,-9.0,30.30,WNW,289,2.0,-999.0,56,-99.99,,,0.00,weatherlink.com 1.10,2013-01-25 08:36:00,
2013-01-25 03:51:00,3.2,-9.0,30.30,NW,317,3.0,-999.0,56,-99.99,,,0.00,weatherlink.com 1.10,2013-01-25 08:51:00,
2013-01-25 04:06:00,2.8,-9.0,30.30,WNW,284,3.0,-999.0,57,-99.99,,,0.00,weatherlink.com 1.10,2013-01-25 09:06:00,
2013-01-25 04:21:00,2.7,-9.0,30.31,WNW,292,4.0,-999.0,58,-99.99,,,0.00,weatherlink.com 1.10,2013-01-25 09:21:00,
2013-01-25 04:36:00,2.4,-9.0,30.32,NW,311,1.0,-999.0,58,-99.99,,,0.00,weatherlink.com 1.10,2013-01-25 09:36:00,
2013-01-25 04:51:00,1.8,-10.0,30.32,West,265,1.0,-999.0,59,-99.99,,,0.00,weatherlink.com 1.10,2013-01-25 09:51:00,
2013-01-25 05:06:00,1.7,-9.0,30.31,NW,314,2.0,-999.0,60,-99.99,,,0.00,weatherlink.com 1.10,2013-01-25 10:06:00,
2013-01-25 05:22:00,1.8,-9.0,30.31,WNW,292,0.0,-999.0,60,-99.99,,,0.00,weatherlink.com 1.10,2013-01-25 10:22:00,
2013-01-25 05:37:00,1.7,-9.0,30.32,NW,304,2.0,-999.0,60,-99.99,,,0.00,weatherlink.com 1.10,2013-01-25 10:37:00,
2013-01-25 05:52:00,1.4,-9.0,30.33,NW,304,0.0,-999.0,61,-99.99,,,0.00,weatherlink.com 1.10,2013-01-25 10:52:00,
2013-01-25 06:07:00,1.1,-10.0,30.33,WSW,256,0.0,-999.0,61,-99.99,,,0.00,weatherlink.com 1.10,2013-01-25 11:07:00,
2013-01-25 06:22:00,0.7,-9.0,30.33,WSW,256,2.0,-999.0,64,-99.99,,,0.00,weatherlink.com 1.10,2013-01-25 11:22:00,
2013-01-25 06:37:00,0.8,-9.0,30.33,WNW,283,1.0,-999.0,63,-99.99,,,0.00,weatherlink.com 1.10,2013-01-25 11:37:00,
2013-01-25 06:52:00,1.0,-9.0,30.33,WNW,292,1.0,-999.0,62,-99.99,,,0.00,weatherlink.com 1.10,2013-01-25 11:52:00,
2013-01-25 07:07:00,1.0,-9.0,30.33,NW,321,0.0,-999.0,63,-99.99,,,0.00,weatherlink.com 1.10,2013-01-25 12:07:00,
2013-01-25 07:22:00,0.8,-9.0,30.33,NW,321,0.0,-999.0,63,-99.99,,,0.00,weatherlink.com 1.10,2013-01-25 12:22:00,
2013-01-25 07:37:00,1.3,-9.0,30.34,WNW,294,2.0,-999.0,63,-99.99,,,0.00,weatherlink.com 1.10,2013-01-25 12:37:00,
2013-01-25 07:52:00,2.0,-8.0,30.34,NNW,336,1.0,-999.0,63,-99.99,,,0.00,weatherlink.com 1.10,2013-01-25 12:52:00,
2013-01-25 08:07:00,2.8,-8.0,30.35,NW,320,1.0,-999.0,62,-99.99,,,0.00,weatherlink.com 1.10,2013-01-25 13:07:00,
2013-01-25 08:22:00,3.6,-8.0,30.35,NW,306,0.0,-999.0,60,-99.99,,,0.00,weatherlink.com 1.10,2013-01-25 13:22:00,
2013-01-25 08:37:00,4.3,-7.0,30.35,WNW,282,1.0,-999.0,59,-99.99,,,0.00,weatherlink.com 1.10,2013-01-25 13:37:00,
2013-01-25 08:53:00,5.1,-7.0,30.35,NW,306,3.0,-999.0,58,-99.99,,,0.00,weatherlink.com 1.10,2013-01-25 13:53:00,
2013-01-25 09:08:00,5.8,-7.0,30.35,NW,304,2.0,-999.0,56,-99.99,,,0.00,weatherlink.com 1.10,2013-01-25 14:08:00,
2013-01-25 09:23:00,6.4,-7.0,30.36,West,281,3.0,-999.0,54,-99.99,,,0.00,weatherlink.com 1.10,2013-01-25 14:23:00,
2013-01-25 09:38:00,7.0,-7.0,30.35,West,271,3.0,-999.0,54,-99.99,,,0.00,weatherlink.com 1.10,2013-01-25 14:38:00,
2013-01-25 09:53:00,7.7,-7.0,30.35,West,274,1.0,-999.0,52,-99.99,,,0.00,weatherlink.com 1.10,2013-01-25 14:53:00,
2013-01-25 10:08:00,8.6,-6.0,30.35,WNW,283,2.0,-999.0,52,-99.99,,,0.00,weatherlink.com 1.10,2013-01-25 15:08:00,
2013-01-25 10:23:00,9.8,-5.0,30.35,WSW,239,1.0,-999.0,51,-99.99,,,0.00,weatherlink.com 1.10,2013-01-25 15:23:00,
2013-01-25 10:38:00,10.8,-6.0,30.35,NW,309,1.0,-999.0,46,-99.99,,,0.00,weatherlink.com 1.10,2013-01-25 15:38:00,
2013-01-25 10:53:00,11.4,-6.0,30.34,SSW,212,4.0,-999.0,45,-99.99,,,0.00,weatherlink.com 1.10,2013-01-25 15:53:00,
2013-01-25 11:08:00,11.9,-7.0,30.34,WNW,286,0.0,-999.0,43,-99.99,,,0.00,weatherlink.com 1.10,2013-01-25 16:08:00,
2013-01-25 11:23:00,12.2,-7.0,30.32,WNW,288,0.0,-999.0,42,-99.99,,,0.00,weatherlink.com 1.10,2013-01-25 16:23:00,
2013-01-25 11:38:00,13.0,-7.0,30.32,West,269,1.0,-999.0,41,-99.99,,,0.00,weatherlink.com 1.10,2013-01-25 16:38:00,
2013-01-25 11:53:00,14.2,-5.0,30.32,WNW,286,0.0,-999.0,42,-99.99,,,0.00,weatherlink.com 1.10,2013-01-25 16:53:00,
2013-01-25 12:09:00,14.8,-5.0,30.31,NW,309,2.0,-999.0,41,-99.99,,,0.00,weatherlink.com 1.10,2013-01-25 17:09:00,
2013-01-25 12:24:00,14.9,-6.0,30.31,West,265,4.0,-999.0,39,-99.99,,,0.00,weatherlink.com 1.10,2013-01-25 17:24:00,
2013-01-25 12:39:00,16.1,-6.0,30.29,WNW,286,3.0,-999.0,38,-99.99,,,0.00,weatherlink.com 1.10,2013-01-25 17:39:00,
2013-01-25 12:54:00,16.7,-5.0,30.28,NNW,344,0.0,-999.0,38,-99.99,,,0.00,weatherlink.com 1.10,2013-01-25 17:54:00,
2013-01-25 13:09:00,16.0,-7.0,30.27,NNW,331,1.0,-999.0,35,-99.99,,,0.00,weatherlink.com 1.10,2013-01-25 18:09:00,
2013-01-25 13:24:00,16.5,-5.0,30.25,NNW,327,2.0,-999.0,39,-99.99,,,0.00,weatherlink.com 1.10,2013-01-25 18:24:00,
2013-01-25 13:39:00,17.3,-5.0,30.25,WNW,296,0.0,-999.0,37,-99.99,,,0.00,weatherlink.com 1.10,2013-01-25 18:39:00,
2013-01-25 13:54:00,17.5,-5.0,30.24,WNW,283,3.0,-999.0,36,-99.99,,,0.00,weatherlink.com 1.10,2013-01-25 18:54:00,
2013-01-25 14:09:00,18.1,-4.0,30.23,WNW,300,1.0,-999.0,37,-99.99,,,0.00,weatherlink.com 1.10,2013-01-25 19:09:00,
2013-01-25 14:24:00,18.1,-5.0,30.23,WNW,290,3.0,-999.0,36,-99.99,,,0.00,weatherlink.com 1.10,2013-01-25 19:24:00,
2013-01-25 14:39:00,17.5,-5.0,30.23,WNW,290,0.0,-999.0,36,-99.99,,,0.00,weatherlink.com 1.10,2013-01-25 19:39:00,
2013-01-25 14:54:00,17.6,-4.0,30.22,NW,317,0.0,-999.0,39,-99.99,,,0.00,weatherlink.com 1.10,2013-01-25 19:54:00,
2013-01-25 15:09:00,18.0,-6.0,30.22,West,277,1.0,-999.0,35,-99.99,,,0.00,weatherlink.com 1.10,2013-01-25 20:09:00,
2013-01-25 15:24:00,17.7,-5.0,30.22,West,281,0.0,-999.0,37,-99.99,,,0.00,weatherlink.com 1.10,2013-01-25 20:24:00,
2013-01-25 15:40:00,17.2,-4.0,30.21,West,275,1.0,-999.0,39,-99.99,,,0.00,weatherlink.com 1.10,2013-01-25 20:40:00,
2013-01-25 15:55:00,16.8,-4.0,30.22,WSW,256,2.0,-999.0,40,-99.99,,,0.00,weatherlink.com 1.10,2013-01-25 20:55:00,
2013-01-25 16:10:00,16.5,-4.0,30.21,West,277,3.0,-999.0,41,-99.99,,,0.00,weatherlink.com 1.10,2013-01-25 21:10:00,
2013-01-25 16:25:00,16.1,-4.0,30.21,WNW,287,1.0,-999.0,41,-99.99,,,0.00,weatherlink.com 1.10,2013-01-25 21:25:00,
2013-01-25 16:40:00,15.8,-3.0,30.21,WNW,287,1.0,-999.0,43,-99.99,,,0.00,weatherlink.com 1.10,2013-01-25 21:40:00,
2013-01-25 16:55:00,15.5,-4.0,30.21,WSW,250,1.0,-999.0,42,-99.99,,,0.00,weatherlink.com 1.10,2013-01-25 21:55:00,
2013-01-25 17:10:00,15.3,-4.0,30.21,West,261,0.0,-999.0,43,-99.99,,,0.00,weatherlink.com 1.10,2013-01-25 22:10:00,
2013-01-25 17:25:00,15.0,-3.0,30.20,West,261,0.0,-999.0,44,-99.99,,,0.00,weatherlink.com 1.10,2013-01-25 22:25:00,
2013-01-25 17:40:00,14.9,-3.0,30.20,West,265,0.0,-999.0,46,-99.99,,,0.00,weatherlink.com 1.10,2013-01-25 22:40:00,
2013-01-25 17:55:00,14.8,-2.0,30.20,West,276,0.0,-999.0,48,-99.99,,,0.00,weatherlink.com 1.10,2013-01-25 22:55:00,
2013-01-25 18:10:00,14.8,-1.0,30.19,WSW,248,0.0,-999.0,50,-99.99,,,0.00,weatherlink.com 1.10,2013-01-25 23:10:00,
2013-01-25 18:25:00,14.8,-1.0,30.18,WSW,249,0.0,-999.0,49,-99.99,,,0.00,weatherlink.com 1.10,2013-01-25 23:25:00,
2013-01-25 18:40:00,14.7,-1.0,30.18,WSW,249,0.0,-999.0,50,-99.99,,,0.00,weatherlink.com 1.10,2013-01-25 23:40:00,
2013-01-25 18:55:00,14.5,-1.0,30.17,WNW,288,0.0,-999.0,50,-99.99,,,0.00,weatherlink.com 1.10,2013-01-25 23:55:00,
2013-01-25 19:11:00,14.5,0.0,30.17,WNW,288,0.0,-999.0,52,-99.99,,,0.00,weatherlink.com 1.10,2013-01-26 00:11:00,
2013-01-25 19:27:00,14.5,-1.0,30.16,WSW,254,1.0,-999.0,50,-99.99,,,0.00,weatherlink.com 1.10,2013-01-26 00:27:00,
2013-01-25 19:41:00,14.5,0.0,30.15,WSW,254,0.0,-999.0,52,-99.99,,,0.00,weatherlink.com 1.10,2013-01-26 00:41:00,
2013-01-25 19:56:00,14.4,1.0,30.14,WSW,254,0.0,-999.0,55,-99.99,,,0.00,weatherlink.com 1.10,2013-01-26 00:56:00,
2013-01-25 20:11:00,14.3,1.0,30.14,West,263,2.0,-999.0,55,-99.99,,,0.00,weatherlink.com 1.10,2013-01-26 01:11:00,
2013-01-25 20:26:00,14.4,0.0,30.14,West,267,1.0,-999.0,53,-99.99,,,0.00,weatherlink.com 1.10,2013-01-26 01:26:00,
2013-01-25 20:41:00,14.4,0.0,30.14,WNW,288,0.0,-999.0,53,-99.99,,,0.00,weatherlink.com 1.10,2013-01-26 01:41:00,
2013-01-25 20:56:00,14.4,2.0,30.13,West,279,3.0,-999.0,57,-99.99,,,0.00,weatherlink.com 1.10,2013-01-26 01:56:00,
2013-01-25 21:11:00,13.9,4.0,30.13,WSW,250,1.0,-999.0,66,-99.99,,,0.00,weatherlink.com 1.10,2013-01-26 02:11:00,
2013-01-25 21:26:00,13.4,5.0,30.12,WSW,250,0.0,-999.0,70,-99.99,,,0.00,weatherlink.com 1.10,2013-01-26 02:26:00,
2013-01-25 21:41:00,13.1,6.0,30.11,WSW,250,0.0,-999.0,74,-99.99,,,0.00,weatherlink.com 1.10,2013-01-26 02:41:00,
2013-01-25 21:56:00,12.8,7.0,30.12,WSW,250,0.0,-999.0,76,-99.99,,,0.00,weatherlink.com 1.10,2013-01-26 02:56:00,
2013-01-25 22:11:00,12.7,7.0,30.11,WSW,250,0.0,-999.0,79,-99.99,,,0.00,weatherlink.com 1.10,2013-01-26 03:11:00,
2013-01-25 22:27:00,12.5,7.0,30.10,WSW,250,0.0,-999.0,80,-99.99,,,0.00,weatherlink.com 1.10,2013-01-26 03:27:00,
2013-01-25 22:42:00,12.4,8.0,30.11,WSW,250,0.0,-999.0,82,-99.99,,,0.00,weatherlink.com 1.10,2013-01-26 03:42:00,
2013-01-25 22:57:00,12.3,8.0,30.11,WSW,250,0.0,-999.0,83,-99.99,,,0.00,weatherlink.com 1.10,2013-01-26 03:57:00,
2013-01-25 23:12:00,12.3,8.0,30.11,WSW,250,0.0,-999.0,84,-99.99,,,0.00,weatherlink.com 1.10,2013-01-26 04:12:00,
2013-01-25 23:27:00,12.2,8.0,30.10,WSW,250,0.0,-999.0,84,-99.99,,,0.00,weatherlink.com 1.10,2013-01-26 04:27:00,
2013-01-25 23:42:00,12.1,9.0,30.10,WSW,250,0.0,-999.0,85,-99.99,,,0.00,weatherlink.com 1.10,2013-01-26 04:42:00,
2013-01-25 23:57:00,11.9,8.0,30.09,WSW,250,0.0,-999.0,85,-99.99,,,0.00,weatherlink.com 1.10,2013-01-26 04:57:00,